Temperature
22 20 20 21 21 21 21 20 19 18 18 17 16 15 15 15 15 14 14 15 15 14 14 14 14 13 13 13 13 13 13 13 13 13 13 14 14 14 14 14 14 14 15 15
20 20 21 20 20 20 19 19 18 18 17 16 15 15 15 15 15 15 15 15 15 14 14 14 14 13 13 13 13 13 13 13 13 13 13 13 13 13 13 13 14 14 14 14
20 20 21 20 20 20 19 19 18 18 16 15 15 15 15 15 15 15 15 15 14 14 14 14 14 13 13 13 13 12 12 12 12 12 13 13 13 13 13 13 13 13 14 14
19 20 20 19 19 19 19 19 19 18 16 15 16 14 14 13 14 14 14 14 14 14 14 14 14 13 13 13 13 12 12 12 12 12 12 12 12 12 13 13 13 13 13 14
19 20 19 19 19 19 19 18 18 17 16 15 15 14 13 13 13 13 14 14 14 14 14 14 14 13 13 13 13 13 12 12 12 12 12 12 12 12 12 13 13 13 13 13
19 19 19 19 19 18 18 16 15 13 13 15 15 14 14 12 13 13 14 14 15 14 14 14 14 14 13 13 13 13 12 12 12 12 12 12 12 12 12 13 13 13 13 13
19 19 19 19 18 17 16 15 14 15 14 14 15 14 14 14 13 14 14 15 15 15 14 14 14 14 14 13 13 13 12 12 12 12 12 12 12 12 12 12 12 12 13 13
19 18 18 18 18 17 16 15 14 16 14 14 14 14 14 15 15 15 15 15 15 15 15 14 14 14 14 14 13 13 12 12 12 12 11 11 11 11 11 12 12 12 12 12
18 18 18 19 18 18 16 14 14 13 14 14 13 14 14 14 14 14 14 14 15 15 15 15 15 14 14 14 13 13 12 12 12 11 11 11 11 11 11 11 11 12 12 12
17 18 18 18 18 17 16 13 12 13 15 14 14 14 14 15 14 13 13 14 15 15 15 15 15 15 14 14 14 13 13 12 12 11 11 11 11 11 11 11 11 11 12 12
17 17 17 17 18 18 16 14 12 11 12 13 13 14 14 15 14 13 13 15 15 15 15 15 15 15 15 14 14 13 13 12 12 12 11 11 11 11 11 11 11 11 11 11
15 14 15 17 17 17 17 16 12 14 13 11 12 12 14 14 14 14 15 16 15 15 15 15 15 15 15 15 14 14 13 13 12 12 11 11 11 11 11 11 11 11 11 11
15 15 16 17 16 17 17 15 13 11 10 10 12 13 14 14 14 15 15 16 16 15 15 15 15 15 15 15 14 14 14 13 12 12 11 11 11 11 10 10 10 10 10 10
16 15 16 18 17 16 17 16 13 12 12 12 12 13 14 14 13 15 15 16 16 16 15 15 15 15 15 15 15 14 14 13 13 12 12 11 11 11 10 10 10 10 10 10
15 16 17 17 17 17 17 16 14 14 13 13 14 13 14 14 14 16 17 17 16 16 16 16 16 16 15 15 15 15 14 14 13 12 12 11 11 10 10 10 10 10 10 10
14 17 18 18 17 17 17 17 15 14 14 14 13 13 14 16 16 16 17 17 16 16 16 16 16 16 15 15 15 15 14 14 13 13 12 11 11 10 10 10 10 10 9 9
14 16 16 16 16 18 18 18 16 16 14 15 15 15 15 16 16 18 18 18 17 17 17 16 16 16 16 15 15 15 14 14 13 13 12 11 11 10 10 10 10 10 9 9
14 13 12 14 18 20 19 19 18 17 17 14 15 15 16 17 18 19 19 19 18 18 17 17 16 16 16 15 15 15 15 14 13 13 12 11 11 11 10 10 10 10 9 9
13 13 13 13 16 17 18 19 19 19 19 18 16 16 17 17 17 19 20 19 19 18 17 17 17 16 16 16 15 15 15 14 13 13 12 11 11 11 10 10 10 10 9 9
12 12 12 13 17 18 19 19 20 19 19 19 18 18 17 16 15 17 20 20 19 19 18 17 17 16 16 16 15 15 15 14 14 13 12 12 11 11 10 10 10 10 10 9
15 13 13 13 15 15 16 18 19 19 18 20 20 20 18 17 18 20 20 20 20 19 18 17 17 17 16 16 16 15 15 15 14 13 13 12 11 11 11 10 10 10 10 10
14 13 12 12 15 17 19 18 18 18 20 21 21 21 20 21 21 20 20 20 20 19 19 18 17 17 17 16 16 16 16 15 14 14 13 12 12 11 11 11 10 10 10 10
13 13 12 13 15 17 17 17 17 18 19 20 20 20 20 20 21 21 20 20 20 19 19 18 18 17 17 16 16 16 16 15 15 14 14 13 12 12 11 11 11 10 10 10
13 13 12 13 15 16 15 16 17 18 19 19 20 20 20 20 20 20 20 20 20 19 19 18 18 17 17 17 17 16 16 15 15 15 14 13 13 12 12 11 11 11 10 10
14 12 13 14 15 16 15 15 16 18 19 20 20 20 20 20 20 20 20 20 20 19 19 19 18 18 18 17 17 17 16 16 15 15 15 14 13 13 12 12 11 11 11 10
11 12 13 14 13 13 12 13 15 17 18 18 19 19 19 19 19 19 19 19 19 19 19 18 18 18 18 18 17 17 17 16 16 16 15 15 14 13 13 12 12 11 11 11
Wind_Speed
6 7 4 2 3 4 4 4 2 1 3 4 4 3 4 3 4 4 3 1 1 3 6 6 7 7 7 8 8 8 9 9 8 6 6 6 6 6 6 5 7 7 7 6
7 5 2 6 8 8 6 4 3 3 3 3 2 2 3 3 4 5 4 3 2 4 6 7 7 7 7 8 8 8 8 9 8 6 5 4 5 5 5 5 6 7 7 6
8 1 3 7 6 6 4 3 3 3 3 4 3 4 4 3 2 2 3 3 3 4 6 7 8 7 7 8 8 8 9 9 8 8 6 6 4 4 4 6 6 6 7 7
7 4 6 7 5 4 1 1 2 4 3 1 1 4 6 5 3 4 5 4 5 5 6 7 8 8 8 7 7 8 8 8 8 7 7 7 6 5 5 6 6 8 6 6
4 3 5 5 2 3 3 3 4 3 4 2 1 2 7 1 6 8 7 6 6 6 7 8 8 8 7 7 7 7 8 7 8 8 7 7 6 5 6 6 8 7 6 6
4 3 3 3 3 3 5 6 6 6 5 2 2 4 7 4 7 6 6 7 7 7 7 8 7 7 7 7 6 6 7 7 8 8 8 7 8 8 9 8 9 8 6 6
5 4 4 2 4 6 7 6 5 5 5 4 3 3 8 6 7 7 7 8 7 7 7 8 8 8 8 8 7 6 7 7 8 8 8 7 8 7 8 7 7 7 6 5
4 2 4 3 3 3 3 6 6 2 3 5 3 5 7 4 3 4 6 6 6 7 7 8 8 7 7 8 7 6 6 6 7 7 7 7 7 5 5 6 6 6 6 6
6 3 1 2 2 5 4 3 5 6 1 3 6 7 7 1 1 3 5 6 7 8 8 8 8 7 7 7 6 5 5 6 6 7 6 7 7 6 7 7 6 5 6 6
7 5 1 1 5 5 4 7 5 4 1 4 8 6 5 6 8 7 8 8 9 8 8 8 8 6 6 5 5 4 4 4 5 5 5 5 6 6 6 6 7 7 8 7
4 6 1 2 2 4 4 4 5 4 4 4 4 7 6 7 7 8 10 9 9 9 8 8 7 6 6 6 5 4 4 4 4 5 5 6 6 6 6 5 6 6 7 8
4 6 2 3 1 2 4 5 6 4 2 4 3 8 7 7 8 8 9 9 8 8 7 7 7 7 6 6 5 5 4 4 4 4 4 5 5 5 6 6 6 6 7 7
6 6 3 4 4 0 2 4 5 6 5 5 3 8 5 4 6 7 8 9 8 8 8 7 6 7 6 6 6 5 5 4 4 3 4 5 5 5 6 6 6 6 6 7
6 5 6 6 6 6 4 5 6 6 4 4 8 9 10 8 9 9 9 9 8 8 8 7 7 7 7 6 6 5 5 4 3 2 2 4 5 5 5 5 5 6 6 6
5 4 4 4 3 4 6 6 8 8 8 8 8 8 12 10 9 8 8 8 8 8 8 8 7 7 6 6 6 5 5 4 2 2 2 4 4 4 5 5 5 6 6 6
3 4 2 2 3 4 5 6 8 8 6 8 7 10 11 8 5 5 7 8 9 10 9 9 8 7 7 7 6 5 5 4 3 3 3 3 3 4 5 5 5 6 6 6
3 4 3 2 4 3 5 6 7 6 8 8 8 8 6 5 6 7 8 9 10 11 10 9 8 8 7 7 6 6 5 3 3 3 3 3 3 4 5 5 5 6 6 5
6 5 4 1 3 3 6 3 6 6 7 10 9 9 7 8 7 7 7 9 10 10 10 9 8 7 6 5 4 3 3 3 3 3 3 3 3 4 4 5 5 5 4 5
4 7 4 3 0 6 6 2 5 2 5 5 7 8 6 2 3 6 8 10 11 11 10 9 8 6 5 5 4 3 3 3 3 4 5 4 3 4 4 5 5 4 4 4
6 6 6 4 2 4 5 3 1 2 4 5 5 5 1 4 2 6 6 7 10 9 8 8 6 5 6 5 4 4 4 4 6 6 6 5 4 4 5 5 5 3 3 4
3 4 4 4 3 7 8 4 2 2 5 5 3 3 6 7 7 5 5 4 6 7 8 7 7 6 7 5 5 6 6 8 8 6 5 5 5 5 5 4 3 3 4 4
8 6 5 5 3 6 3 4 4 6 4 3 3 3 6 9 9 7 7 7 6 7 7 7 7 8 7 6 7 7 8 8 6 5 6 6 6 5 3 3 3 3 3 4
7 8 7 8 6 3 4 2 4 4 4 4 4 4 4 6 6 6 6 7 7 8 7 7 8 8 7 7 8 9 9 7 6 6 7 7 6 5 4 4 4 3 2 2
4 3 4 3 4 1 4 5 7 6 4 5 5 5 3 3 6 7 6 6 6 6 7 6 7 8 9 8 9 11 9 6 7 8 8 7 6 6 5 4 4 3 3 3
4 6 4 4 2 1 5 9 10 9 8 9 8 7 7 5 6 6 6 6 6 6 5 5 7 9 11 9 9 10 8 7 8 9 8 7 7 7 6 5 5 6 6 6
4 6 7 5 3 2 1 7 9 8 10 11 11 12 11 9 8 8 6 6 6 6 5 5 7 9 11 9 10 10 8 9 9 8 8 7 6 6 6 6 5 8 10 10
Wind_Direction
34 68 85 143 158 153 146 150 165 136 131 136 174 183 187 158 151 163 173 166 310 310 306 316 323 327 332 334 337 336 338 337 342 343 339 333 329 322 321 314 313 310 304 294
53 64 75 93 80 83 94 116 121 71 66 104 138 235 225 197 196 193 187 198 255 305 322 324 325 330 332 328 331 335 336 334 339 338 325 306 302 302 301 308 318 319 316 308
116 121 81 86 75 75 68 137 168 150 74 58 74 321 242 228 177 175 195 221 256 284 300 309 317 320 326 327 328 332 330 332 334 338 334 330 327 319 332 335 332 324 321 312
85 50 80 79 68 92 108 4 132 130 111 322 93 294 280 232 231 224 227 246 265 282 290 297 306 313 317 315 321 326 329 332 335 342 349 352 349 338 322 320 317 321 323 322
72 66 78 84 79 98 132 60 75 97 121 38 22 208 292 216 248 244 232 239 257 272 281 290 298 302 307 313 321 325 333 337 341 345 347 346 344 329 320 327 335 341 340 336
76 54 76 116 81 70 107 70 56 51 70 350 238 183 283 234 227 237 220 228 249 268 283 292 300 310 311 316 324 333 340 338 343 346 349 352 348 344 348 351 350 348 343 343
48 31 21 74 72 33 65 76 29 5 9 269 269 210 254 259 229 218 208 218 240 260 276 290 304 313 312 316 323 331 338 334 339 346 350 350 349 349 353 350 350 352 351 349
123 7 2 44 108 101 75 119 141 198 254 293 317 249 258 272 250 209 201 210 236 259 271 281 289 296 299 306 320 327 331 327 335 344 342 347 354 355 351 351 353 356 351 344
145 161 10 77 105 118 109 99 149 131 180 291 293 290 306 201 239 205 212 223 241 256 270 279 289 297 298 303 310 314 317 320 329 336 337 345 353 357 354 353 355 355 353 353
132 130 24 79 77 53 107 139 96 104 110 308 304 293 271 266 251 237 230 231 242 255 270 282 289 294 298 295 296 309 306 307 314 328 334 339 344 349 351 358 2 358 354 355
102 123 59 30 145 165 119 91 100 105 141 156 298 284 231 236 243 232 231 227 233 244 260 275 286 294 298 299 298 301 302 310 319 329 333 340 342 347 355 360 356 351 352 355
102 112 148 253 269 190 164 159 146 144 197 165 197 270 265 249 254 234 234 231 232 239 254 269 283 296 304 303 299 291 286 292 299 315 328 333 339 348 354 351 347 348 351 352
132 109 85 356 348 339 168 147 136 124 116 154 198 266 286 280 266 244 237 237 238 245 260 275 287 292 294 293 291 282 274 271 283 310 329 333 339 345 343 339 339 346 348 349
113 111 157 184 216 198 195 177 151 135 155 210 229 259 293 280 263 253 238 236 236 245 257 267 278 282 285 284 281 275 270 259 260 284 316 319 323 326 326 329 336 342 345 347
101 135 193 227 224 184 207 198 177 186 194 208 242 249 269 271 256 248 232 228 234 247 254 256 262 272 282 285 283 273 265 255 235 243 286 297 310 320 328 333 334 338 344 346
82 123 91 352 358 203 237 233 201 214 215 235 266 276 262 268 256 251 233 221 229 241 247 252 259 264 269 272 275 274 261 245 214 228 263 289 312 325 330 328 329 334 338 338
99 119 99 311 323 24 286 243 193 211 211 202 229 249 276 272 256 248 234 222 227 234 239 244 250 252 256 259 260 260 252 227 210 229 260 283 298 311 318 323 329 329 328 331
123 101 106 58 34 251 244 245 188 212 242 216 236 258 261 250 265 259 231 219 230 233 234 238 240 246 250 251 256 253 226 211 215 235 261 274 283 297 311 319 320 318 316 322
120 125 108 101 40 293 301 247 177 198 289 223 231 269 280 274 336 301 237 213 222 226 225 228 228 227 238 246 244 217 217 217 223 241 253 259 262 282 301 309 311 311 315 321
64 86 108 118 148 237 249 278 198 125 309 277 225 275 215 116 23 283 283 228 227 227 222 223 220 216 231 238 202 194 221 225 234 237 240 246 248 260 277 289 297 302 308 311
88 68 115 148 213 264 251 259 112 108 260 276 238 246 174 195 217 247 304 265 231 225 221 213 206 213 226 214 184 207 223 232 234 231 233 242 246 253 262 280 290 307 320 332
165 151 166 148 182 254 269 158 173 223 263 280 270 245 211 237 263 270 279 276 254 235 223 206 206 225 228 202 191 215 232 234 225 218 230 242 248 253 258 266 290 311 332 338
188 186 181 184 202 244 356 285 310 294 277 289 295 301 263 261 277 278 270 268 258 240 229 212 210 230 236 213 201 219 236 223 209 215 232 241 248 249 248 248 268 289 306 318
238 164 154 232 269 74 31 1 347 332 306 312 318 323 324 286 296 301 290 280 267 250 235 220 214 231 243 228 217 228 237 210 204 221 233 237 241 250 245 236 233 238 253 263
194 165 180 232 273 83 24 10 350 353 14 24 23 24 16 359 334 318 305 294 279 267 251 226 223 234 245 241 232 234 227 205 213 226 233 235 233 237 241 237 230 228 229 212
194 180 178 198 187 164 29 346 348 14 25 24 29 29 22 17 356 343 326 315 302 290 280 259 248 246 252 248 246 243 221 203 210 227 233 231 229 230 230 238 259 241 233 241
Height
1526 1533 1541 1540 1539 1541 1545 1550 1555 1555 1553 1556 1560 1561 1561 1561 1561 1561 1561 1561 1560 1560 1558 1556 1553 1550 1546 1543 1539 1535 1531 1527 1523 1519 1516 1513 1510 1509 1507 1506 1505 1505 1505 1505
1534 1541 1539 1538 1539 1543 1548 1554 1556 1556 1555 1558 1561 1562 1560 1560 1560 1560 1560 1560 1560 1559 1557 1555 1553 1549 1546 1542 1539 1535 1531 1527 1523 1519 1516 1513 1510 1507 1505 1503 1502 1502 1501 1501
1538 1541 1538 1540 1544 1548 1551 1555 1556 1558 1559 1560 1563 1565 1561 1559 1559 1559 1559 1559 1559 1558 1557 1555 1552 1549 1546 1542 1539 1535 1532 1528 1524 1520 1517 1513 1510 1507 1504 1502 1500 1499 1498 1497
1539 1539 1540 1544 1548 1549 1555 1551 1552 1556 1564 1569 1566 1577 1562 1559 1558 1558 1558 1558 1558 1557 1556 1554 1552 1549 1546 1543 1539 1536 1532 1529 1525 1521 1518 1514 1510 1507 1504 1501 1499 1497 1496 1495
1543 1542 1543 1548 1549 1548 1552 1551 1553 1556 1563 1571 1570 1575 1567 1560 1560 1557 1556 1556 1556 1556 1555 1553 1551 1549 1546 1543 1540 1536 1533 1529 1526 1522 1519 1515 1512 1508 1505 1502 1499 1497 1495 1494
1543 1543 1544 1547 1547 1548 1550 1555 1560 1566 1571 1579 1570 1576 1570 1563 1557 1553 1553 1554 1554 1555 1554 1552 1550 1548 1546 1543 1539 1536 1533 1530 1526 1523 1520 1516 1513 1509 1506 1503 1500 1497 1495 1493
1548 1547 1546 1546 1549 1551 1554 1565 1579 1578 1585 1581 1569 1572 1567 1552 1550 1550 1550 1551 1553 1553 1552 1551 1549 1547 1545 1542 1539 1536 1533 1530 1527 1524 1520 1517 1514 1510 1507 1504 1501 1498 1495 1493
1553 1558 1550 1547 1550 1555 1558 1565 1581 1585 1588 1583 1571 1572 1558 1549 1547 1547 1548 1550 1551 1551 1551 1550 1548 1546 1544 1541 1539 1536 1533 1530 1527 1524 1521 1518 1515 1512 1508 1505 1502 1499 1497 1494
1553 1557 1549 1548 1548 1551 1559 1566 1568 1580 1580 1585 1577 1566 1553 1548 1547 1547 1547 1548 1549 1549 1549 1548 1547 1545 1543 1541 1538 1535 1533 1530 1527 1524 1521 1518 1515 1512 1509 1506 1504 1501 1498 1495
1544 1555 1551 1549 1550 1553 1555 1563 1573 1579 1584 1588 1580 1572 1563 1548 1547 1546 1545 1545 1546 1547 1547 1546 1545 1544 1542 1540 1537 1535 1532 1530 1527 1524 1521 1518 1515 1512 1510 1507 1504 1501 1498 1495
1541 1554 1557 1553 1554 1556 1559 1565 1573 1582 1581 1590 1589 1575 1549 1545 1542 1542 1541 1542 1543 1544 1545 1544 1543 1542 1541 1539 1536 1534 1532 1529 1527 1524 1521 1518 1515 1513 1510 1507 1504 1501 1498 1495
1544 1555 1562 1556 1552 1551 1553 1558 1569 1577 1580 1586 1589 1576 1541 1540 1538 1538 1538 1539 1540 1541 1542 1542 1541 1540 1539 1537 1535 1533 1531 1529 1526 1524 1521 1518 1515 1513 1510 1507 1504 1501 1498 1495
1543 1554 1565 1563 1562 1555 1554 1558 1563 1572 1581 1588 1587 1569 1540 1538 1536 1535 1536 1536 1538 1539 1539 1539 1539 1538 1537 1536 1534 1532 1530 1527 1525 1523 1520 1518 1515 1512 1509 1506 1504 1501 1498 1495
1539 1551 1559 1562 1560 1554 1554 1556 1562 1567 1577 1580 1574 1560 1542 1537 1534 1532 1532 1533 1535 1536 1537 1537 1537 1536 1535 1534 1532 1530 1528 1526 1524 1522 1520 1517 1514 1512 1509 1506 1503 1500 1498 1495
1539 1548 1547 1548 1547 1548 1550 1551 1557 1561 1562 1566 1557 1553 1540 1533 1530 1528 1529 1530 1532 1533 1534 1534 1534 1534 1533 1532 1530 1529 1527 1525 1523 1521 1519 1516 1514 1511 1508 1506 1503 1500 1498 1495
1540 1545 1546 1546 1545 1546 1548 1546 1551 1554 1554 1555 1552 1547 1530 1528 1527 1526 1526 1527 1528 1529 1530 1531 1532 1532 1531 1530 1529 1527 1525 1523 1522 1520 1518 1515 1513 1510 1508 1505 1503 1500 1498 1495
1543 1546 1552 1554 1550 1545 1548 1541 1544 1545 1545 1545 1547 1537 1528 1526 1525 1524 1523 1524 1525 1526 1527 1529 1529 1530 1529 1529 1527 1526 1524 1522 1520 1518 1516 1514 1512 1509 1507 1504 1502 1500 1497 1495
1542 1549 1558 1558 1551 1552 1543 1532 1534 1536 1536 1536 1533 1529 1526 1525 1523 1522 1522 1522 1522 1523 1524 1526 1527 1527 1527 1527 1526 1524 1522 1521 1519 1517 1515 1513 1511 1509 1506 1504 1501 1499 1497 1494
1538 1546 1557 1563 1559 1554 1538 1530 1531 1533 1532 1528 1528 1525 1523 1522 1521 1519 1519 1519 1520 1521 1522 1523 1524 1525 1525 1525 1524 1523 1521 1519 1517 1516 1514 1512 1510 1508 1505 1503 1501 1498 1496 1493
1541 1544 1556 1562 1556 1554 1539 1528 1527 1531 1534 1525 1524 1523 1522 1522 1526 1521 1518 1517 1517 1518 1519 1520 1522 1522 1523 1523 1522 1521 1519 1518 1516 1515 1513 1511 1509 1507 1505 1503 1500 1497 1495 1492
1546 1551 1557 1560 1558 1551 1531 1526 1528 1540 1538 1524 1522 1521 1521 1520 1520 1518 1517 1516 1516 1517 1517 1518 1519 1519 1520 1520 1520 1519 1517 1516 1515 1513 1512 1510 1508 1506 1504 1502 1500 1497 1494 1491
1544 1551 1555 1559 1557 1548 1525 1526 1530 1530 1523 1522 1521 1520 1519 1518 1517 1516 1515 1515 1514 1515 1515 1516 1516 1516 1517 1517 1517 1516 1515 1514 1513 1511 1510 1508 1507 1505 1503 1501 1499 1496 1493 1490
1536 1536 1539 1540 1538 1529 1526 1525 1525 1523 1521 1521 1520 1519 1518 1516 1515 1514 1513 1513 1512 1513 1513 1513 1513 1514 1514 1514 1514 1513 1513 1512 1511 1509 1508 1507 1505 1504 1502 1500 1498 1495 1493 1490
1529 1528 1531 1532 1526 1525 1525 1523 1521 1519 1519 1518 1518 1517 1516 1515 1514 1513 1512 1511 1510 1510 1510 1511 1511 1511 1511 1511 1511 1510 1510 1509 1508 1507 1505 1504 1503 1501 1500 1498 1496 1494 1492 1489
1522 1525 1527 1527 1524 1523 1522 1521 1520 1519 1518 1517 1516 1515 1514 1514 1512 1511 1510 1509 1508 1508 1508 1508 1507 1507 1507 1507 1507 1507 1507 1506 1505 1503 1502 1501 1500 1498 1497 1496 1494 1492 1491 1489
1520 1521 1522 1523 1522 1522 1524 1522 1520 1518 1517 1516 1516 1515 1514 1512 1511 1510 1508 1507 1506 1505 1505 1504 1504 1503 1503 1503 1503 1503 1503 1502 1501 1499 1498 1497 1496 1495 1494 1493 1491 1490 1489 1487